Weather past 2 weeks in Bantam, Cocos Islands

Now
79 °F

Overcast.


Feels Like: 82 °F
Forecast: 78 / 83 °F
Wind: 17 mph from Southeast

Location: Cocos Island Airport

Current Time: Nov 23, 2014 at 12:13:39 AM

Latest Report: Nov 22, 2014 at 11:30 PM


Visibility: N/A

Pressure: 29.89 "Hg

Humidity: 79%

Dew point: 72 °F

Location of BantamLocation

Historic Weather in Bantam — Graph

°F

Bantam temperature yesterday

Maximum temperature yesterday: 84 °F (at 11:00 AM)
Minimum temperature yesterday: 79 °F (at 12:00 AM)
Average temperature yesterday: 80 °F

Past Weeks' High & Low Weather Summary

 TemperatureHumidityPressure
High84 °F (Nov 8, 12:00 PM)94% (Nov 10, 8:00 PM)29.95 "Hg (Nov 10, 8:00 PM)
Low77 °F (Nov 8, 1:30 AM)55% (Nov 16, 11:00 AM)29.77 "Hg (Nov 16, 3:00 PM)
Average80 °F77%29.88 "Hg
* Reported Nov 7 10:30 PM — Nov 22 10:30 PM, Bantam, Weather by CustomWeather, © 2014

Note: Actual official high and low records may vary slightly from our data, if they occured in-between our weather recording intervals... More about our weather records

Advertising

Bantam weather history for previous 24 hours

 ConditionsComfort  
Time TempWeatherWind HumidityBarometerVisibility
10:30 PM
Nov 22
79 °FMostly cloudy.16 mph84%29.92 "HgN/A
10:00 PM79 °FPassing clouds.16 mph79%29.92 "HgN/A
9:30 PM79 °FPassing clouds.17 mph79%29.89 "HgN/A
9:00 PM79 °FWarm.16 mph84%29.89 "HgN/A
8:30 PM79 °FPassing clouds.17 mph79%29.89 "HgN/A
8:00 PM79 °FPassing clouds.20 mph84%29.89 "HgN/A
7:30 PM79 °FClear.17 mph84%29.89 "HgN/A
7:00 PM79 °FSunny.17 mph79%29.86 "HgN/A
6:30 PM81 °FSunny.18 mph79%29.86 "HgN/A
6:00 PM81 °FScattered clouds.18 mph79%29.86 "HgN/A
5:30 PM81 °FScattered clouds.18 mph79%29.83 "HgN/A
5:00 PM81 °FScattered clouds.18 mph79%29.83 "HgN/A
4:30 PM82 °FPassing clouds.18 mph74%29.83 "HgN/A
4:00 PM82 °FPassing clouds.18 mph74%29.83 "HgN/A
3:30 PM82 °FScattered clouds.18 mph74%29.83 "HgN/A
3:00 PM82 °FPassing clouds.20 mph74%29.83 "HgN/A
2:30 PM82 °FPassing clouds.18 mph74%29.83 "HgN/A
2:00 PM82 °FPassing clouds.20 mph70%29.86 "HgN/A
1:30 PM82 °FPassing clouds.20 mph70%29.86 "HgN/A
1:00 PM82 °FPassing clouds.18 mph74%29.86 "HgN/A
12:30 PM84 °FPassing clouds.20 mph74%29.89 "HgN/A
12:00 PM84 °FPassing clouds.21 mph70%29.89 "HgN/A
11:30 AM84 °FSprinkles. Scattered clouds.20 mph74%29.89 "HgN/A
11:00 AM84 °FScattered clouds.20 mph74%29.89 "HgN/A
10:30 AM82 °FScattered clouds.18 mph79%29.92 "HgN/A
9:30 AM82 °FScattered clouds.17 mph79%29.92 "HgN/A
9:00 AM82 °FScattered clouds.18 mph74%29.92 "HgN/A
8:30 AM82 °FPassing clouds.18 mph74%29.92 "HgN/A
8:00 AM81 °FPassing clouds.16 mph79%29.89 "HgN/A
7:30 AM81 °FPassing clouds.17 mph79%29.89 "HgN/A
7:00 AM79 °FPassing clouds.17 mph84%29.89 "HgN/A
6:30 AM79 °FScattered showers. Scattered clouds.16 mph79%29.89 "HgN/A
6:00 AM79 °FPassing clouds.16 mph84%29.86 "HgN/A
5:30 AM79 °FPassing clouds.15 mph84%29.86 "HgN/A
5:00 AM79 °FClear.16 mph84%29.86 "HgN/A
4:30 AM79 °FPassing clouds.17 mph79%29.86 "HgN/A
4:00 AM79 °FPassing clouds.16 mph84%29.86 "HgN/A
3:30 AM79 °FClear.18 mph79%29.86 "HgN/A
3:00 AM79 °FWarm.17 mph79%29.86 "HgN/A
2:30 AM79 °FClear.17 mph79%29.86 "HgN/A
2:00 AM79 °FPassing clouds.16 mph79%29.86 "HgN/A
1:30 AM79 °FPassing clouds.17 mph79%29.89 "HgN/A
1:00 AM79 °FPassing clouds.18 mph79%29.89 "HgN/A
12:30 AM79 °FOvercast.17 mph79%29.89 "HgN/A
12:00 AM79 °FOvercast.18 mph79%29.92 "HgN/A
Weather by CustomWeather, © 2014

See weather overviewHow to use our weather pages